Location: Ravensburg
(48.5621°N, 13.4088°E)
Time: 04:51:53
(UTC+01:00)

ISS - Pass Details

Date: 17 November 2017
Orbit: 402 x 407 km, 51.6° (Epoch: 22 November)

Event Time Altitude Azimuth Distance (km) Brightness Sun altitude
Exits shadow 04:48:20 18° 150° (SSE) 1,068 -1.4 -24.5°
Drops below altitude 10° 04:49:22 10° 141° (SE) 1,450 -0.5 -24.3°
Sets 04:51:30 0° 134° (SE) 2,306 0.7 -23.9°
